Accueil
METAR-TAF:

METAR-TAF

Aéroports :

Romorantin, France

Pruniers

latitude: 47-19N, longitude: 001-41E, altitude: 85 m

Observation

Le bulletin a été fait il y a 23 minutes, à 10:30 UTC
Vent 10 kt de sud/sud-ouest
Température 16°C
Humidité 82%
Pression 1001 hPa
Visibilité 10 km ou plus
pluie faible

METAR: LFYR 291030Z AUTO 21010KT 9999 -RA FEW026/// SCT042/// BKN094/// ///CB 16/13 Q1001 TEMPO 28020G35KT 2000 TSRAGS BKN009 BKN025CB

Heure: 12:53 (10:53 UTC)


TAF: absent

Observations et prévisions météorologiques de plus de 4000 aéroports (messages METAR et TAF).

Les stations disponibles sont représentées par des disques jaunes et rouges sur la carte.

Passer la souris dessus pour voir le nom de la station.

Cliquer dessus pour voir les observations et prévisions météorologiques.

Pour changer de carte: cliquez sur les boutons verts avec une croix noire pour zoomer, sur le bouton vert avec un tiret pour effectuer un zoom arrière, ou sur les flèches vertes pour les cartes adjacentes.


METAR-TAF: